Location: New Plymouth
(39.0670°S, 174.0830°E)
Time: 15:59:22
(UTC+12:00)

STRAND 1 - Pass Details

Date: 26 August 2019
Orbit: 768 x 782 km, 98.5° (Epoch: 15 September)

Event Time Altitude Azimuth Distance (km) Brightness Sun altitude
Rises 20:39:54 0° 320° (NW) 3,253 ? -32.5°
Reaches altitude 10° 20:44:18 10° 284° (WNW) 2,344 ? -33.3°
Maximum altitude 20:45:37 11° 269° (W) 2,287 ? -33.5°
Drops below altitude 10° 20:46:55 10° 254° (WSW) 2,354 ? -33.8°
Sets 20:51:25 0° 218° (SW) 3,299 ? -34.6°
